Hourly Weather Alingsas

Today, 27 February, Saturday

Time Temperature Precipitation Wind Pressure Humidity
00:00 +3°C° 0 mm 1 mps 763 mmHg 78%
01:00 +3°C° 0 mm 1 mps 763 mmHg 80%
02:00 +2°C° 0 mm 1 mps 764 mmHg 81%
03:00 +2°C° 0 mm 1 mps 764 mmHg 81%
04:00 0°C° 0 mm 0 mps 764 mmHg 81%
05:00 +1°C° 0 mm 1 mps 764 mmHg 81%
06:00 +1°C° 0 mm 1 mps 765 mmHg 80%
07:00 +1°C° 0 mm 1 mps 765 mmHg 80%
08:00 +3°C° 0 mm 1 mps 765 mmHg 74%
09:00 +5°C° 0 mm 1 mps 765 mmHg 67%
10:00 +6°C° 0 mm 1 mps 765 mmHg 61%
11:00 +6°C° 0 mm 2 mps 765 mmHg 60%
12:00 +7°C° 0 mm 2 mps 765 mmHg 59%
13:00 +7°C° 0 mm 3 mps 766 mmHg 58%
14:00 +7°C° 0 mm 3 mps 765 mmHg 64%
15:00 +5°C° 0 mm 3 mps 765 mmHg 71%
16:00 +5°C° 0 mm 3 mps 765 mmHg 77%
17:00 +4°C° 0 mm 3 mps 764 mmHg 83%
18:00 +4°C° 0 mm 2 mps 764 mmHg 89%
19:00 +3°C° 0 mm 2 mps 764 mmHg 95%
20:00 +2°C° 0 mm 2 mps 764 mmHg 95%
21:00 +3°C° 0 mm 1 mps 764 mmHg 94%
22:00 +3°C° 0 mm 1 mps 764 mmHg 94%
23:00 +3°C° 0 mm 1 mps 764 mmHg 93%

Tomorrow, 28 February, Sunday

Time Temperature Precipitation Wind Pressure Humidity
00:00 +1°C° 0 mm 0 mps 764 mmHg 91%
01:00 +1°C° 0 mm 0 mps 764 mmHg 90%
02:00 +1°C° 0 mm 0 mps 764 mmHg 90%
03:00 +1°C° 0 mm 0 mps 764 mmHg 90%
04:00 +1°C° 0 mm 0 mps 764 mmHg 89%
05:00 +1°C° 0 mm 0 mps 764 mmHg 89%
06:00 +1°C° 0 mm 0 mps 765 mmHg 89%
07:00 +1°C° 0 mm 0 mps 765 mmHg 89%
08:00 +3°C° 0 mm 0 mps 765 mmHg 82%
09:00 +4°C° 0 mm 0 mps 765 mmHg 75%
10:00 +6°C° 0 mm 0 mps 765 mmHg 68%
11:00 +8°C° 0 mm 1 mps 765 mmHg 65%
12:00 +9°C° 0 mm 1 mps 765 mmHg 62%
13:00 +11°C° 0 mm 1 mps 766 mmHg 59%
14:00 +10°C° 0 mm 1 mps 765 mmHg 62%
15:00 +10°C° 0 mm 1 mps 765 mmHg 66%
16:00 +9°C° 0 mm 1 mps 765 mmHg 69%
17:00 +8°C° 0 mm 1 mps 765 mmHg 75%
18:00 +6°C° 0 mm 1 mps 765 mmHg 81%
19:00 +5°C° 0 mm 1 mps 765 mmHg 87%
20:00 +3°C° 0 mm 2 mps 765 mmHg 87%
21:00 +3°C° 0 mm 2 mps 765 mmHg 88%
22:00 +3°C° 0 mm 2 mps 765 mmHg 88%
23:00 +3°C° 0 mm 2 mps 764 mmHg 88%

Day after tomorrow, 1 March, Monday

Time Temperature Precipitation Wind Pressure Humidity
00:00 +2°C° 0 mm 3 mps 764 mmHg 88%
01:00 +2°C° 0 mm 3 mps 764 mmHg 87%
02:00 +2°C° 0 mm 3 mps 764 mmHg 89%
03:00 +2°C° 0 mm 3 mps 763 mmHg 90%
04:00 +1°C° 0 mm 4 mps 763 mmHg 92%
05:00 +1°C° 0 mm 4 mps 763 mmHg 91%
06:00 +1°C° 0 mm 4 mps 763 mmHg 89%
07:00 0°C° 0 mm 4 mps 762 mmHg 88%
08:00 +1°C° 0 mm 4 mps 762 mmHg 84%
09:00 +4°C° 0 mm 4 mps 762 mmHg 80%
10:00 +5°C° 0 mm 4 mps 762 mmHg 75%
11:00 +5°C° 0 mm 3 mps 763 mmHg 72%
12:00 +7°C° 0 mm 3 mps 763 mmHg 68%
13:00 +8°C° 0 mm 3 mps 763 mmHg 64%
14:00 +8°C° 0 mm 2 mps 763 mmHg 64%
15:00 +8°C° 0 mm 2 mps 763 mmHg 65%
16:00 +9°C° 0 mm 1 mps 763 mmHg 65%
17:00 +7°C° 0 mm 1 mps 763 mmHg 69%
18:00 +6°C° 0 mm 1 mps 763 mmHg 74%
19:00 +4°C° 0 mm 1 mps 763 mmHg 78%
20:00 +4°C° 0 mm 1 mps 763 mmHg 75%
21:00 +4°C° 0 mm 1 mps 763 mmHg 73%
22:00 +3°C° 0 mm 1 mps 763 mmHg 70%
23:00 +3°C° 0 mm 1 mps 763 mmHg 70%

2 March, Tuesday

Time Temperature Precipitation Wind Pressure Humidity
00:00 +3°C° 0 mm 1 mps 763 mmHg 69%
01:00 +3°C° 0 mm 1 mps 763 mmHg 68%
02:00 +3°C° 0 mm 1 mps 763 mmHg 68%
03:00 +3°C° 0 mm 1 mps 763 mmHg 68%
04:00 +3°C° 0 mm 1 mps 763 mmHg 68%
05:00 +3°C° 0 mm 1 mps 763 mmHg 68%
06:00 +3°C° 0 mm 1 mps 763 mmHg 68%
07:00 +3°C° 0 mm 1 mps 763 mmHg 69%
08:00 +4°C° 0 mm 1 mps 763 mmHg 65%
09:00 +6°C° 0 mm 1 mps 763 mmHg 62%
10:00 +7°C° 0 mm 1 mps 764 mmHg 59%
11:00 +9°C° 0 mm 1 mps 763 mmHg 59%
12:00 +10°C° 0 mm 1 mps 763 mmHg 59%
13:00 +10°C° 0 mm 2 mps 763 mmHg 58%
14:00 +9°C° 0 mm 2 mps 763 mmHg 63%
15:00 +9°C° 0 mm 2 mps 763 mmHg 68%
16:00 +9°C° 0 mm 2 mps 763 mmHg 73%
17:00 +7°C° 0 mm 2 mps 763 mmHg 80%
18:00 +5°C° 0 mm 2 mps 762 mmHg 88%
19:00 +4°C° 0 mm 2 mps 762 mmHg 95%
20:00 +3°C° 0 mm 2 mps 762 mmHg 95%
21:00 +3°C° 0 mm 2 mps 762 mmHg 95%
22:00 +3°C° 0 mm 2 mps 762 mmHg 95%
23:00 +3°C° 0 mm 2 mps 762 mmHg 95%

3 March, Wednesday

Time Temperature Precipitation Wind Pressure Humidity
00:00 +4°C° 0 mm 1 mps 762 mmHg 95%
01:00 +4°C° 0 mm 1 mps 762 mmHg 95%
02:00 +4°C° 0 mm 1 mps 762 mmHg 95%
03:00 +4°C° 0 mm 1 mps 762 mmHg 94%
04:00 +4°C° 0 mm 1 mps 762 mmHg 94%
05:00 +3°C° 0 mm 1 mps 762 mmHg 94%
06:00 +3°C° 0 mm 1 mps 761 mmHg 94%
07:00 +3°C° 0 mm 1 mps 761 mmHg 94%
08:00 +3°C° 0 mm 1 mps 761 mmHg 93%
09:00 +4°C° 0 mm 1 mps 761 mmHg 91%
10:00 +4°C° 0 mm 1 mps 761 mmHg 90%
11:00 +4°C° 0 mm 1 mps 761 mmHg 89%
12:00 +4°C° 0 mm 2 mps 761 mmHg 87%
13:00 +4°C° 0 mm 2 mps 761 mmHg 85%
14:00 +4°C° 0 mm 2 mps 760 mmHg 85%
15:00 +4°C° 0 mm 2 mps 760 mmHg 84%
16:00 +4°C° 0 mm 2 mps 759 mmHg 83%
17:00 +3°C° 0 mm 2 mps 759 mmHg 87%
18:00 +2°C° 0 mm 2 mps 758 mmHg 91%
19:00 +2°C° 0 mm 1 mps 758 mmHg 95%
20:00 +2°C° 0 mm 1 mps 758 mmHg 95%
21:00 +2°C° 0 mm 1 mps 758 mmHg 95%
22:00 +2°C° 0 mm 1 mps 758 mmHg 95%
23:00 +2°C° 0 mm 1 mps 757 mmHg 96%

4 March, Thursday

Time Temperature Precipitation Wind Pressure Humidity
00:00 +1°C° 0 mm 0 mps 757 mmHg 96%
01:00 0°C° 0 mm 0 mps 757 mmHg 97%
02:00 0°C° 0 mm 0 mps 756 mmHg 97%
03:00 0°C° 0 mm 0 mps 756 mmHg 97%
04:00 0°C° 0 mm 0 mps 756 mmHg 96%
05:00 0°C° 0 mm 0 mps 756 mmHg 96%
06:00 0°C° 0 mm 0 mps 756 mmHg 96%
07:00 0°C° 0 mm 0 mps 756 mmHg 95%
08:00 +2°C° 0 mm 1 mps 756 mmHg 90%
09:00 +2°C° 0 mm 2 mps 756 mmHg 85%
10:00 +3°C° 0 mm 2 mps 756 mmHg 79%
11:00 +3°C° 0 mm 3 mps 757 mmHg 73%
12:00 +3°C° 0 mm 3 mps 757 mmHg 67%
13:00 +4°C° 0 mm 4 mps 757 mmHg 61%
14:00 +4°C° 0 mm 4 mps 757 mmHg 62%
15:00 +3°C° 0 mm 4 mps 758 mmHg 64%
16:00 +3°C° 0 mm 4 mps 758 mmHg 66%
17:00 +1°C° 0 mm 4 mps 758 mmHg 67%
18:00 +1°C° 0 mm 3 mps 758 mmHg 69%
19:00 +1°C° 0 mm 2 mps 758 mmHg 71%
20:00 -1°C° 0 mm 2 mps 759 mmHg 71%
21:00 -1°C° 0 mm 2 mps 759 mmHg 70%
22:00 -2°C° 0 mm 2 mps 760 mmHg 69%
23:00 -2°C° 0 mm 2 mps 760 mmHg 70%
Show more